sat.trackr.live / text

‹ back to catalog

STARLINK-5420

NORAD 54798 · 2022-175AS

PAYLOAD ACTIVE UNKNOWN

§ Identity

Operator
Country
US
Launch date
2022-12-17
Launch site
AFETR
Launch vehicle
Mass (kg)
RCS (m²)

Purposes: comms

External: N2YO · Heavens-Above · Gunter

§ Orbital elements

Epoch: 2026-05-25T03:09:45.995904Z

Period
95.44 min
Inclination
53.2135°
Eccentricity
0.0001500
Mean motion
15.08835711 rev/d
Perigee alt
538.7 km
Apogee alt
540.8 km
Semi-major
6,917.9 km
B*
-1.3351e-6
RAAN
35.7216°
Arg perigee
70.7752°
Mean anomaly
289.3402°
Rev number
19,181

§ Raw data

STARLINK-54201 54798U 22175AS  26145.13178236 -.00000309  00000+0 -13351-5 0  99902 54798  53.2135  35.7216 0001500  70.7752 289.3402 15.08835711191819

JSON: /api/v1/satellites/54798 · /tle

For live sub-satellite position, see the globe view (requires WebGL).

§ Visibility from observer

Set your observer location to see the next 7 days of passes ≥ 10°. The values pass through the URL so the page stays shareable.

No JS? Fill the form by hand. The geolocation button needs JavaScript.